| time (UTC) | temp F | wind direction | speed knots | gust knots | rain 1hr in | rain 24hr in | rain mn in | humidity % | barometer mb |
| 20260509161529 | 80 | 210 | 0.0 | 0.9 | 0.00 | 0.00 | 0.00 | 75 | 1009.8 |
| 20260509160026 | 79 | 210 | 0.0 | 0.0 | 0.00 | 0.00 | 0.00 | 78 | 1009.7 |
| 20260509154518 | 77 | 210 | 0.0 | 0.0 | 0.00 | 0.00 | 0.00 | 83 | 1009.7 |
| 20260509153030 | 77 | 210 | 0.0 | 0.9 | 0.00 | 0.00 | 0.00 | 84 | 1009.9 |
| 20260509151516 | 76 | 210 | 0.0 | 0.0 | 0.00 | 0.00 | 0.00 | 85 | 1009.9 |
| 20260509150015 | 76 | 210 | 0.0 | 0.9 | 0.00 | 0.00 | 0.00 | 90 | 1009.9 |
| 20260509144523 | 74 | 210 | 0.0 | 0.0 | 0.00 | 0.00 | 0.00 | 91 | 1009.7 |
| 20260509143007 | 73 | 210 | 0.0 | 0.0 | 0.00 | 0.00 | 0.00 | 93 | 1009.7 |
| 20260509141513 | 73 | 210 | 0.0 | 0.0 | 0.00 | 0.00 | 0.00 | 95 | 1009.9 |
| 20260509140003 | 72 | 210 | 0.0 | 0.0 | 0.00 | 0.00 | 0.00 | 95 | 1009.8 |
| 20260509134503 | 72 | 210 | 0.0 | 0.0 | 0.00 | 0.00 | 0.00 | 96 | 1009.7 |
| 20260509133100 | 72 | 210 | 0.0 | 0.0 | 0.00 | 0.00 | 0.00 | 96 | 1009.6 |
| 20260509131556 | 72 | 210 | 0.0 | 0.0 | 0.00 | 0.00 | 0.00 | 96 | 1009.3 |
| 20260509130059 | 72 | 210 | 0.0 | 0.0 | 0.00 | 0.00 | 0.00 | 96 | 1009.1 |
| 20260509124552 | 71 | 210 | 0.0 | 0.0 | 0.00 | 0.00 | 0.00 | 96 | 1008.4 |
| 20260509123113 | 71 | 217 | 0.0 | 0.9 | 0.00 | 0.00 | 0.00 | 96 | 1008.5 |
| 20260509121609 | 71 | 217 | 0.0 | 0.9 | 0.00 | 0.00 | 0.00 | 96 | 1008.4 |
| 20260509120054 | 71 | 217 | 0.0 | 1.7 | 0.00 | 0.00 | 0.00 | 96 | 1008.4 |
| 20260509114552 | 71 | 217 | 0.0 | 7.0 | 0.00 | 0.00 | 0.00 | 96 | 1007.8 |
| 20260509113050 | 71 | 217 | 0.0 | 6.1 | 0.00 | 0.00 | 0.00 | 96 | 1008.0 |
| 20260509111600 | 71 | 121 | 0.9 | 9.6 | 0.00 | 0.00 | 0.00 | 95 | 1007.9 |
| 20260509110047 | 71 | 92 | 0.0 | 6.1 | 0.00 | 0.00 | 0.00 | 95 | 1007.8 |
| 20260509104547 | 71 | 84 | 0.0 | 2.6 | 0.00 | 0.00 | 0.00 | 95 | 1008.2 |
| 20260509103056 | 71 | 84 | 0.0 | 3.5 | 0.00 | 0.00 | 0.00 | 95 | 1008.2 |
| 20260509101613 | 71 | 71 | 0.0 | 0.9 | 0.00 | 0.00 | 0.00 | 94 | 1008.7 |
| 20260509100042 | 71 | 71 | 0.0 | 0.0 | 0.00 | 0.00 | 0.00 | 94 | 1008.9 |
| 20260509094540 | 71 | 71 | 0.0 | 0.0 | 0.00 | 0.00 | 0.00 | 94 | 1008.9 |
| 20260509093037 | 72 | 71 | 0.0 | 0.0 | 0.00 | 0.00 | 0.00 | 94 | 1009.3 |
| 20260509091541 | 72 | 71 | 0.0 | 0.0 | 0.00 | 0.00 | 0.00 | 94 | 1009.2 |
| 20260509090039 | 72 | 71 | 0.0 | 0.0 | 0.00 | 0.00 | 0.00 | 94 | 1009.4 |
| 20260509084537 | 72 | 71 | 0.0 | 0.0 | 0.00 | 0.00 | 0.00 | 93 | 1009.8 |
| 20260509083032 | 72 | 71 | 0.0 | 0.0 | 0.00 | 0.00 | 0.00 | 93 | 1010.2 |
| 20260509081536 | 72 | 71 | 0.0 | 0.0 | 0.00 | 0.00 | 0.00 | 93 | 1010.3 |
| 20260509080030 | 72 | 71 | 0.0 | 0.0 | 0.00 | 0.00 | 0.00 | 93 | 1010.1 |
| 20260509074541 | 72 | 71 | 0.0 | 0.0 | 0.00 | 0.00 | 0.00 | 93 | 1010.0 |
| 20260509073029 | 72 | 71 | 0.0 | 0.0 | 0.00 | 0.00 | 0.00 | 93 | 1010.2 |
| 20260509071527 | 72 | 71 | 0.0 | 0.0 | 0.00 | 0.00 | 0.00 | 92 | 1009.9 |
| 20260509070026 | 72 | 71 | 0.0 | 0.0 | 0.00 | 0.00 | 0.00 | 92 | 1009.7 |
| 20260509064526 | 72 | 71 | 0.0 | 0.0 | 0.00 | 0.00 | 0.00 | 92 | 1009.7 |
| 20260509063029 | 72 | 71 | 0.0 | 0.0 | 0.00 | 0.00 | 0.00 | 92 | 1009.9 |
| 20260509061523 | 72 | 71 | 0.0 | 0.0 | 0.00 | 0.00 | 0.00 | 92 | 1009.6 |
| 20260509060023 | 72 | 71 | 0.0 | 0.0 | 0.00 | 0.00 | 0.00 | 91 | 1009.6 |
| 20260509054521 | 72 | 71 | 0.0 | 0.0 | 0.00 | 0.00 | 0.00 | 90 | 1009.5 |
| 20260509053022 | 72 | 71 | 0.0 | 0.0 | 0.00 | 0.00 | 0.00 | 90 | 1009.6 |
| 20260509051516 | 72 | 71 | 0.0 | 0.0 | 0.00 | 0.00 | 0.00 | 90 | 1009.6 |
| 20260509050012 | 73 | 71 | 0.0 | 0.0 | 0.00 | 0.00 | 0.00 | 90 | 1009.4 |
| 20260509044511 | 73 | 71 | 0.0 | 0.0 | 0.00 | 0.00 | 0.00 | 90 | 1009.7 |
| 20260509043011 | 73 | 71 | 0.0 | 0.0 | 0.00 | 0.00 | 0.00 | 90 | 1009.7 |
| 20260509041510 | 73 | 71 | 0.0 | 0.0 | 0.00 | 0.00 | 0.00 | 90 | 1009.8 |
| 20260509040010 | 73 | 71 | 0.0 | 0.0 | 0.00 | 0.00 | 0.00 | 89 | 1009.4 |
| 20260509034509 | 73 | 71 | 0.0 | 0.0 | 0.00 | 0.00 | 0.00 | 89 | 1009.2 |
| 20260509033009 | 73 | 71 | 0.0 | 0.0 | 0.00 | 0.00 | 0.00 | 88 | 1008.7 |
| 20260509031507 | 73 | 71 | 0.0 | 0.0 | 0.00 | 0.00 | 0.00 | 87 | 1008.6 |
| 20260509030007 | 74 | 71 | 0.0 | 0.0 | 0.00 | 0.00 | 0.00 | 88 | 1008.5 |
| 20260509024507 | 74 | 71 | 0.0 | 0.0 | 0.00 | 0.00 | 0.00 | 87 | 1008.4 |
| 20260509023008 | 74 | 71 | 0.0 | 0.0 | 0.00 | 0.00 | 0.00 | 87 | 1008.1 |
| 20260509021505 | 74 | 71 | 0.0 | 0.9 | 0.00 | 0.00 | 0.00 | 86 | 1008.0 |
| 20260509020011 | 74 | 71 | 0.0 | 0.9 | 0.00 | 0.00 | 0.00 | 86 | 1007.7 |
| 20260509014511 | 74 | 71 | 0.0 | 0.9 | 0.00 | 0.00 | 0.00 | 85 | 1007.7 |
| 20260509013010 | 74 | 71 | 0.0 | 0.0 | 0.00 | 0.00 | 0.00 | 85 | 1007.7 |
| 20260509011502 | 74 | 71 | 0.0 | 0.0 | 0.00 | 0.00 | 0.00 | 84 | 1007.8 |
| 20260509010001 | 74 | 71 | 0.0 | 0.9 | 0.00 | 0.00 | 0.00 | 84 | 1007.7 |
| 20260509004600 | 75 | 71 | 0.0 | 0.9 | 0.00 | 0.00 | 0.00 | 83 | 1007.5 |
| 20260509004504 | 75 | 71 | 0.0 | 0.9 | 0.00 | 0.00 | 0.00 | 83 | 1007.5 |
| 20260509003100 | 75 | 71 | 0.0 | 0.0 | 0.00 | 0.00 | 0.00 | 82 | 1007.6 |
| 20260509001558 | 75 | 70 | 0.0 | 1.7 | 0.00 | 0.00 | 0.00 | 82 | 1007.8 |
| 20260509000113 | 75 | 70 | 0.0 | 0.9 | 0.00 | 0.00 | 0.00 | 81 | 1007.9 |
| 20260508234558 | 75 | 70 | 0.0 | 0.9 | 0.00 | 0.00 | 0.00 | 81 | 1008.0 |
| 20260508233113 | 76 | 70 | 0.0 | 1.7 | 0.00 | 0.00 | 0.00 | 80 | 1007.9 |
| 20260508231556 | 76 | 70 | 0.0 | 0.9 | 0.00 | 0.00 | 0.00 | 79 | 1007.8 |
| 20260508230058 | 76 | 69 | 0.0 | 0.9 | 0.00 | 0.00 | 0.00 | 80 | 1007.7 |
| 20260508224553 | 76 | 69 | 0.0 | 0.9 | 0.00 | 0.00 | 0.00 | 80 | 1008.0 |
| 20260508223051 | 76 | 69 | 0.0 | 0.9 | 0.00 | 0.00 | 0.00 | 80 | 1008.1 |
| 20260508221546 | 75 | 68 | 0.0 | 0.9 | 0.00 | 0.00 | 0.00 | 81 | 1008.7 |
| 20260508220048 | 75 | 68 | 0.0 | 0.0 | 0.00 | 0.00 | 0.00 | 81 | 1008.9 |
| 20260508214545 | 75 | 69 | 0.0 | 0.9 | 0.00 | 0.00 | 0.00 | 81 | 1008.9 |
| 20260508213045 | 75 | 69 | 0.0 | 0.9 | 0.00 | 0.00 | 0.00 | 80 | 1009.1 |
| 20260508211542 | 75 | 68 | 0.0 | 0.0 | 0.00 | 0.00 | 0.00 | 80 | 1009.3 |
| 20260508210040 | 74 | 68 | 0.0 | 0.0 | 0.00 | 0.00 | 0.00 | 79 | 1009.6 |
| 20260508204540 | 74 | 68 | 0.0 | 0.9 | 0.00 | 0.00 | 0.00 | 79 | 1009.8 |
| 20260508203040 | 75 | 70 | 0.0 | 1.7 | 0.00 | 0.00 | 0.00 | 79 | 1009.8 |
| 20260508201539 | 75 | 69 | 0.0 | 0.9 | 0.00 | 0.00 | 0.00 | 78 | 1009.8 |
| 20260508200043 | 75 | 69 | 0.0 | 0.0 | 0.00 | 0.00 | 0.00 | 77 | 1009.9 |
| 20260508194535 | 73 | 69 | 0.0 | 0.9 | 0.00 | 0.00 | 0.00 | 78 | 1010.1 |
| 20260508193030 | 73 | 69 | 0.0 | 0.9 | 0.00 | 0.00 | 0.00 | 79 | 1010.3 |
| 20260508191528 | 71 | 69 | 0.0 | 1.7 | 0.00 | 0.00 | 0.00 | 81 | 1010.7 |
| 20260508190024 | 71 | 69 | 0.0 | 0.9 | 0.00 | 0.00 | 0.00 | 81 | 1010.8 |
| 20260508184521 | 69 | 68 | 0.0 | 0.0 | 0.00 | 0.00 | 0.00 | 82 | 1011.1 |
| 20260508183023 | 68 | 68 | 0.0 | 0.0 | 0.00 | 0.00 | 0.00 | 84 | 1011.2 |
| 20260508181513 | 67 | 68 | 0.0 | 0.0 | 0.00 | 0.00 | 0.00 | 86 | 1011.7 |
| 20260508180014 | 67 | 68 | 0.0 | 0.0 | 0.00 | 0.00 | 0.00 | 85 | 1012.1 |
| 20260508174510 | 67 | 68 | 0.0 | 0.0 | 0.00 | 0.00 | 0.00 | 85 | 1012.3 |
| 20260508173008 | 67 | 68 | 0.0 | 1.7 | 0.00 | 0.00 | 0.00 | 85 | 1012.4 |
| 20260508171506 | 66 | 68 | 0.0 | 0.0 | 0.00 | 0.00 | 0.00 | 85 | 1012.6 |
| 20260508170005 | 66 | 68 | 0.0 | 0.9 | 0.00 | 0.00 | 0.00 | 84 | 1012.9 |
| 20260508164504 | 66 | 68 | 0.0 | 0.9 | 0.00 | 0.00 | 0.00 | 85 | 1013.0 |
| 20260508163001 | 66 | 53 | 0.0 | 0.9 | 0.00 | 0.00 | 0.00 | 85 | 1012.9 |